INTELSAT 20 (IS-20) (38740 NORAD) Tracking and Keplerian Element Data

This shows tracking and keplerian element data for the satellite.

Feedback or suggestion? Click here.




ElementValue
Catalog38740
NameINTELSAT 20 (IS-20)
Epoch Orbit2335
Epoch Day349.57583343
Epoch Year2018
RAAN21.5511
Inclination0.0109
Eccentricity0.0003509
Argument of Perigee166.1293
Mean Anonmoly172.3143
Mean Motion1.00269963
Decay Rate-1.2E-07
L11 38740U 12043A 18349.57583343 -.00000012 00000-0 00000+0 0 9998
L22 38740 0.0109 21.5511 0003509 166.1293 172.3143 1.00269963 23354

Live tracking and technical data element details for INTELSAT 20 (IS-20) (NORAD 38740). INTELSAT 20 (IS-20) can be tracked NOW for your location showing map with azimuth and elevation plus other details from your city location.

Track the satellite on the map from your city or location and see movement details for azimuth, elevation, latitude, longitude, range, height, and movement on the map or in text.







IsCatalogInMostPopularTable: catalog: 38740, numindb: 154
Update: records affected: 1



GetName: 38740 INTELSAT 20 (IS-20)

Hit Count: updated at: Sun, 16 Dec 2018 09:57:06 GMT